Theta_e
329 329 329 328 330 331 331 332 334 334 332 331 331 330 329 329 330 331 331 331 330 330 328 326 325 326 326 326 327 329 327 329 331 329 328 328 329 326 326 325 322 324 325 328 325 328 327 328 331 333 333 330 328 329 326 324 326 326 322 323 320 321 318 316 311 311 315 315 313 311 311 312 309 310 310 310 311 311 310 305 305 305 305 304 304
329 329 329 329 329 329 330 330 328 329 330 329 330 330 329 329 330 329 329 329 329 329 327 327 326 325 323 324 325 326 326 329 329 329 326 328 326 328 326 326 325 319 324 325 326 327 329 327 329 331 330 328 327 322 323 323 318 318 316 318 315 321 323 317 313 310 309 311 312 311 311 312 308 310 310 310 310 308 306 305 306 307 306 305 304
329 329 328 327 327 328 329 330 331 330 329 331 330 329 329 329 328 329 329 329 329 330 327 327 326 324 322 323 322 324 326 327 329 329 328 325 323 324 327 325 322 324 325 323 322 325 327 328 328 330 331 327 327 325 324 322 319 316 318 318 315 318 317 316 313 312 310 311 313 308 308 309 308 308 311 312 312 309 305 305 306 309 309 307 305
327 326 328 327 327 327 328 329 328 328 328 329 330 329 329 328 328 328 328 328 328 330 327 327 327 326 323 320 321 322 326 327 328 328 323 323 322 323 325 322 324 325 325 322 322 324 325 328 328 328 327 326 325 324 322 323 321 319 319 318 318 320 318 323 316 313 311 309 308 307 309 307 311 310 311 312 311 308 307 306 307 308 309 309 308
328 326 327 325 325 326 328 327 327 329 328 329 329 330 330 328 327 327 328 328 328 328 326 328 328 325 325 320 320 322 324 325 327 325 324 325 324 326 323 323 326 325 323 324 327 324 325 326 325 325 326 324 325 323 323 324 319 319 320 317 318 322 324 321 318 313 311 309 310 311 309 309 310 310 311 309 310 310 308 306 306 307 309 309 310
326 327 326 324 324 325 326 326 327 330 329 329 328 329 329 328 328 327 326 326 327 328 326 327 327 324 323 321 321 322 322 325 323 321 321 325 326 325 325 326 326 322 323 323 324 327 326 325 325 325 326 325 323 324 323 322 320 322 320 320 317 320 321 320 319 319 312 312 309 313 308 308 307 312 310 310 310 309 307 307 307 308 309 309 308
326 326 326 326 326 326 326 326 330 333 330 329 330 329 328 328 327 325 326 327 326 327 326 326 329 325 324 323 322 323 322 324 324 324 323 325 325 326 324 326 325 325 325 324 323 325 324 325 325 327 327 326 325 325 324 324 326 322 322 324 319 321 320 320 318 317 318 315 312 313 311 311 310 309 311 312 312 311 309 306 306 308 310 306 305
324 326 326 326 327 326 327 330 330 331 330 328 328 328 328 327 328 327 328 327 327 326 324 325 328 327 325 323 322 324 324 325 323 325 325 326 325 325 327 326 326 325 326 326 327 326 324 323 324 324 322 322 322 321 322 323 325 323 323 323 323 321 320 318 317 318 316 316 314 310 313 310 311 315 317 311 309 309 310 310 306 307 310 308 305
324 325 326 326 326 327 329 329 329 329 328 328 327 327 326 329 327 326 328 326 329 326 325 324 327 325 325 325 321 324 325 322 319 321 324 324 326 327 326 327 325 326 326 326 326 327 326 327 325 323 322 318 312 313 314 318 323 323 323 323 322 322 320 321 322 317 317 318 316 316 315 312 309 311 311 310 307 308 310 311 310 310 311 310 308
324 324 324 325 326 328 328 327 327 327 327 327 328 327 327 328 325 325 325 324 327 323 323 323 325 326 323 325 324 324 320 315 303 298 301 320 326 326 328 327 327 326 326 327 326 326 328 326 326 322 317 315 309 302 300 303 309 318 319 320 319 320 319 318 318 317 318 316 314 315 313 313 312 312 311 312 313 312 311 311 309 311 311 311 310
322 323 323 325 326 326 325 324 324 324 325 325 324 323 324 326 326 323 323 323 326 323 324 320 325 325 323 324 324 320 313 304 296 294 296 298 315 326 327 326 327 327 326 326 327 326 327 326 327 323 320 319 312 301 301 300 299 300 301 306 312 318 316 317 316 317 315 317 317 315 313 313 314 315 314 315 315 315 311 312 310 311 310 309 307
318 321 322 323 324 324 324 324 324 324 324 322 321 322 323 324 323 324 324 324 324 326 325 323 323 325 324 324 323 317 309 298 294 295 295 294 300 317 324 326 328 328 327 325 324 323 323 324 327 330 328 326 324 315 308 303 302 300 299 300 299 300 303 314 314 314 315 314 315 315 315 313 313 314 313 314 313 313 314 313 312 310 309 308 308
311 313 321 322 322 322 323 323 323 322 321 320 319 320 321 321 321 322 323 324 325 323 323 322 321 323 325 322 317 313 309 295 295 295 295 293 294 310 322 324 324 325 325 324 321 323 321 320 321 322 325 327 326 325 322 315 302 300 300 300 299 297 295 295 301 313 315 313 312 312 314 314 312 313 314 315 317 313 313 312 311 311 311 310 310
310 310 311 316 321 321 321 320 319 319 319 320 319 319 318 317 318 320 322 322 322 323 322 321 322 322 323 318 312 308 304 296 294 294 295 294 293 302 322 324 325 325 325 323 322 322 324 324 322 322 321 321 323 328 326 325 319 315 315 316 318 315 301 296 295 297 305 314 314 312 314 316 315 316 318 317 316 315 313 312 312 310 313 312 314
308 309 310 310 313 319 321 320 319 318 318 318 318 317 317 318 318 319 321 323 323 321 321 320 320 321 321 317 311 307 300 293 293 293 293 294 294 300 321 324 324 325 326 325 321 323 323 324 323 322 322 323 321 315 321 323 323 324 323 322 322 322 322 321 315 312 310 311 314 316 317 315 317 320 320 320 319 319 318 315 314 314 315 315 314
306 308 308 309 311 314 318 320 319 319 319 319 317 316 316 317 318 319 320 321 323 324 322 321 320 321 321 317 312 307 300 291 292 292 292 292 295 313 319 322 323 324 324 326 323 322 322 321 321 320 321 322 313 296 302 311 321 322 321 320 320 321 319 296 294 296 305 310 310 310 308 306 299 306 307 312 319 318 316 318 317 317 314 311 310
305 306 306 308 308 310 315 317 316 317 318 318 318 316 316 317 318 318 319 319 321 321 321 322 322 322 319 317 312 306 300 293 291 291 291 291 298 312 318 320 321 322 322 323 322 322 321 321 322 321 321 321 305 297 297 302 319 320 319 318 319 318 318 305 294 292 292 293 294 294 294 294 295 296 298 298 310 315 317 313 311 312 309 307 308
304 304 305 307 308 309 311 313 313 315 317 317 317 318 319 318 318 321 318 318 318 320 320 320 320 319 316 312 308 303 299 294 291 291 291 291 296 308 314 317 319 321 320 321 321 321 319 318 319 321 320 316 295 294 291 305 319 320 319 318 316 316 316 312 309 302 293 292 292 293 295 296 297 299 299 300 303 311 315 310 312 311 308 307 306
303 303 304 306 307 307 308 310 310 311 311 313 315 315 317 318 318 318 317 318 318 319 319 317 317 317 314 311 308 304 300 297 292 292 292 292 296 304 310 315 317 318 317 318 320 319 318 307 304 306 310 301 292 293 292 302 315 317 318 316 314 315 316 317 313 308 307 306 306 307 306 307 311 310 307 300 304 311 317 316 314 311 307 308 306
302 303 304 305 306 307 307 308 309 309 309 310 310 312 315 318 319 317 317 317 316 315 315 314 313 312 311 310 308 304 301 298 294 292 293 294 294 306 313 308 307 309 316 316 317 319 317 311 300 291 291 291 291 291 292 292 305 311 315 315 315 314 314 315 316 313 312 311 310 309 310 310 311 310 311 311 313 314 315 313 312 312 310 309 306
301 302 303 303 304 304 305 306 308 309 310 310 310 311 312 312 314 315 315 315 314 312 312 312 311 309 308 307 307 307 306 301 297 292 293 294 294 298 304 302 301 305 310 313 315 315 316 310 304 294 291 291 291 290 291 290 292 305 311 312 306 302 300 313 316 305 312 313 311 310 311 311 310 309 309 310 309 310 305 303 303 301 301 302 303
300 300 301 302 302 303 303 304 305 308 310 310 310 309 311 312 312 312 312 312 311 310 310 310 310 308 306 306 304 303 303 302 301 294 293 293 293 294 300 300 298 304 304 306 309 309 307 303 300 295 290 291 291 290 290 291 289 303 309 297 295 295 304 305 312 314 312 312 312 310 310 309 309 308 308 308 307 302 301 300 299 299 301 302 302
301 301 300 301 302 302 302 303 303 305 305 306 307 307 308 310 311 311 311 311 311 310 309 309 308 307 305 303 303 302 302 301 297 299 293 293 293 293 292 295 293 302 302 304 306 305 305 304 301 295 291 291 291 290 291 290 294 300 289 292 293 292 295 307 311 312 310 310 310 310 309 309 309 307 307 304 300 300 299 299 299 299 299 298 299
303 302 301 301 301 302 302 302 303 303 303 303 303 303 303 304 304 305 310 311 311 309 308 308 307 306 305 304 303 303 303 301 296 295 296 293 293 293 292 292 293 297 302 304 305 304 302 301 298 291 290 290 290 291 290 290 293 289 290 290 291 293 301 306 309 310 306 307 306 307 307 305 304 303 300 299 299 299 300 300 299 299 298 298 297
302 301 302 302 301 302 302 302 302 302 303 302 301 301 302 303 302 303 302 301 301 301 303 308 309 307 307 306 305 305 304 302 300 297 294 294 293 293 293 293 293 293 301 303 304 302 294 291 290 290 291 290 292 293 296 293 290 289 290 290 295 301 305 307 309 310 307 306 307 305 299 298 299 298 299 299 298 299 298 299 299 298 298 298 298
300 299 299 300 301 301 301 301 302 302 302 301 300 300 299 299 298 298 299 301 300 300 299 300 300 301 301 302 302 304 305 300 299 299 297 296 295 294 294 294 296 295 296 300 295 292 290 290 291 293 295 295 298 300 300 301 293 291 290 291 301 304 306 307 308 307 307 305 303 301 299 298 298 300 299 299 299 298 297 296 297 296 297 297 297
299 299 300 298 298 299 298 298 299 300 301 301 300 298 296 296 296 295 296 296 299 299 299 299 299 300 301 302 303 302 299 297 295 296 296 295 296 297 299 300 297 297 300 302 299 300 299 298 299 293 291 290 289 290 292 295 298 299 299 300 302 303 304 303 303 303 301 303 300 300 298 297 297 297 296 297 298 297 297 296 296 295 295 295 296
299 298 299 300 299 298 297 291 294 296 296 296 296 298 298 296 293 293 292 294 295 297 297 296 297 298 299 298 299 300 297 295 293 292 292 292 293 295 297 298 298 298 299 297 295 296 298 296 297 296 298 299 300 299 300 301 300 298 300 301 301 301 301 300 300 302 303 302 299 298 295 297 296 297 296 295 295 295 297 295 294 294 295 295 292
300 300 300 300 300 299 298 296 295 294 294 293 293 293 295 297 294 293 293 292 293 295 295 294 294 296 298 295 295 295 294 293 291 289 289 288 288 291 293 293 294 294 294 289 290 294 298 299 298 301 301 294 293 297 299 300 296 299 302 302 301 303 303 302 301 301 302 300 296 295 295 297 296 295 293 294 294 295 295 293 293 293 294 295 293
299 299 299 299 299 300 301 298 296 295 294 293 293 293 289 290 294 295 292 289 289 290 290 292 293 295 297 296 295 293 292 291 289 288 288 288 289 288 289 289 288 289 289 287 287 289 290 292 294 294 295 296 294 294 294 297 295 295 296 297 297 301 300 301 303 302 299 296 296 294 295 292 292 293 293 291 291 291 291 292 292 293 291 291 291
297 297 297 297 297 299 298 298 299 299 297 296 294 291 292 291 288 289 290 289 289 288 288 288 289 289 293 295 293 289 290 289 289 289 289 289 289 289 288 289 289 288 287 288 289 290 292 292 293 293 295 296 293 293 294 294 293 292 294 295 298 297 296 299 300 294 293 292 292 292 291 292 292 292 290 289 290 291 291 291 292 293 292 291 290
296 296 297 297 298 298 298 298 299 298 298 298 296 294 292 291 291 289 288 288 289 288 288 288 289 289 289 290 293 294 291 290 289 289 289 289 289 289 289 289 289 289 287 287 288 290 292 292 293 294 294 294 293 294 295 295 294 294 293 292 292 293 295 296 297 297 292 292 291 290 290 290 290 289 289 288 287 288 289 288 289 288 289 291 290
298 298 298 300 298 297 297 298 298 298 298 297 298 297 295 293 290 290 290 288 288 288 288 289 288 289 289 289 290 290 289 289 289 289 290 289 289 289 289 289 289 289 287 289 290 291 292 294 295 296 296 294 295 294 295 297 296 294 295 294 294 295 298 298 295 295 290 290 289 289 289 289 288 287 287 287 287 287 287 288 289 289 288 287 287
297 296 296 298 299 298 298 298 297 297 298 297 297 296 296 297 296 294 291 290 290 290 289 288 288 288 289 289 289 290 290 289 289 289 289 289 289 289 289 289 289 289 290 290 292 292 294 295 295 295 296 294 295 293 293 295 295 295 293 295 295 296 297 299 295 289 289 289 289 289 288 288 288 288 288 288 288 288 287 287 287 287 286 287 286
298 293 290 293 297 297 297 297 297 297 297 297 297 296 297 297 296 295 295 295 294 293 292 293 289 288 292 292 290 290 290 290 290 290 290 290 290 290 291 293 292 293 294 298 297 296 294 294 294 294 295 294 293 292 293 295 294 294 293 292 294 294 293 292 291 291 290 289 289 289 288 288 288 288 288 288 287 287 287 287 287 288 287 287 287
300 298 298 297 296 296 296 297 296 297 297 297 297 296 296 296 295 295 295 295 294 295 294 294 293 290 290 291 290 291 290 290 290 290 290 290 291 293 293 292 292 293 293 295 295 295 295 295 294 294 295 295 296 294 294 293 293 294 295 293 291 290 290 291 290 289 288 288 288 288 289 288 288 288 288 288 287 287 287 286 286 287 287 287 286
296 296 297 297 297 296 296 295 296 296 293 295 297 297 296 296 296 294 294 293 293 294 295 294 295 296 294 296 293 292 291 291 291 290 290 291 292 294 293 293 293 294 293 294 294 294 294 294 294 294 294 294 294 294 292 294 294 294 292 293 292 289 288 288 289 289 289 288 287 288 288 288 288 287 287 287 287 287 287 287 287 287 287 287 286
295 295 295 295 297 298 296 296 296 291 294 296 296 295 295 295 295 294 292 294 292 291 294 293 291 292 291 293 297 294 292 292 291 292 292 291 291 292 292 292 292 292 292 294 294 294 293 294 293 293 292 292 292 293 292 292 291 290 290 290 289 289 289 289 288 288 288 288 288 288 288 288 288 287 287 287 287 287 287 286 287 287 286 286 286
295 290 287 289 291 296 295 294 294 295 296 297 294 294 291 293 293 293 293 292 292 292 292 293 292 292 292 293 292 294 293 293 291 290 290 291 291 291 291 292 292 290 292 293 293 292 293 293 292 292 292 291 291 292 292 290 291 289 290 290 289 290 289 289 288 288 288 288 288 288 288 288 288 287 287 287 287 287 287 287 287 286 286 286 286
295 295 292 289 293 294 294 294 297 295 293 294 294 294 293 292 292 292 291 291 291 291 292 291 292 292 293 293 292 292 290 290 291 290 289 290 290 292 292 290 289 291 291 292 292 293 292 292 292 291 291 290 291 290 291 290 290 290 290 291 290 289 289 288 288 288 288 288 288 288 288 288 288 288 288 288 287 288 287 286 286 286 286 285 286
296 295 293 292 292 296 294 295 295 294 295 292 295 293 293 292 293 291 292 291 291 291 292 292 293 295 294 291 288 288 291 293 293 292 292 291 290 291 291 291 291 292 292 291 290 292 292 291 290 289 289 289 289 289 289 289 289 289 288 288 289 289 288 288 288 288 288 288 288 288 288 288 288 288 287 286 287 287 287 287 287 286 287 286 286
297 296 295 296 296 296 295 294 293 294 294 294 293 293 292 291 292 292 291 290 290 290 291 293 295 295 292 289 289 288 292 294 293 293 292 292 290 291 290 291 292 292 290 290 291 288 289 288 289 289 290 289 289 289 289 289 289 289 288 287 287 288 288 288 288 288 288 288 288 287 287 287 287 287 287 288 286 286 287 287 286 286 286 287 286
297 296 297 298 296 295 295 295 295 293 290 292 293 291 293 295 293 292 291 292 291 291 291 290 292 293 294 291 290 289 294 293 290 292 291 290 291 290 290 289 290 291 291 291 290 289 289 288 287 288 288 288 288 289 289 289 288 288 287 287 286 286 286 287 287 288 288 288 287 287 287 287 287 287 286 286 286 286 286 286 286 285 285 285 286
296 296 296 296 296 295 296 296 294 292 292 290 291 290 293 292 293 293 293 292 291 290 291 291 291 291 291 293 292 291 292 292 292 291 291 290 290 289 289 288 289 289 289 288 288 288 288 287 287 287 286 288 287 289 288 289 289 288 288 287 287 286 286 286 287 287 287 287 287 287 287 287 287 287 286 286 286 286 286 286 285 285 284 284 285
298 297 296 297 297 296 296 296 294 293 291 291 290 292 291 293 292 291 291 292 292 292 291 291 291 290 290 292 292 292 292 291 289 289 289 289 289 289 288 288 288 287 287 287 287 286 287 287 286 286 286 287 287 286 288 287 287 287 287 286 286 286 286 286 287 288 287 287 287 287 287 287 287 287 287 287 287 286 285 285 285 286 284 284 284
297 297 296 296 296 295 297 296 293 296 294 293 293 294 294 296 294 291 291 291 291 291 291 291 291 291 290 291 291 290 291 291 289 290 289 289 289 289 288 287 287 287 287 286 286 286 285 286 286 286 286 286 286 287 287 286 286 285 284 284 284 284 284 284 285 286 288 287 287 287 286 287 286 286 287 286 285 285 285 284 284 285 284 284 284
297 296 295 295 296 296 295 297 296 294 295 294 293 293 292 295 293 290 290 291 293 291 292 292 291 291 292 291 291 291 291 290 290 289 288 290 289 289 288 288 288 287 287 286 285 286 286 286 285 285 285 284 285 285 285 285 285 284 283 282 281 281 281 281 283 285 285 285 286 286 285 285 286 286 286 286 284 286 286 285 285 284 285 285 285
296 296 296 295 295 295 295 297 294 292 294 294 294 292 291 291 293 291 291 292 292 292 293 294 294 292 291 293 292 290 291 292 292 291 290 290 289 289 288 287 287 287 286 286 285 285 285 285 284 285 284 284 284 284 283 283 282 282 282 281 279 279 279 280 282 283 282 283 285 285 284 284 284 285 285 284 284 284 285 285 285 286 286 286 286
297 296 296 295 295 295 296 296 295 295 295 297 293 292 291 292 292 295 293 293 293 292 293 293 294 294 292 293 292 292 293 291 292 293 291 290 290 288 288 287 287 286 286 285 285 284 284 284 284 284 284 284 283 283 281 281 281 280 279 279 278 278 278 279 280 280 281 283 285 285 285 285 284 284 284 284 284 284 284 283 285 285 286 286 286
296 296 296 295 295 296 296 296 296 296 295 296 295 294 293 293 293 294 293 294 293 293 293 293 294 293 294 294 292 293 292 291 291 290 290 290 289 289 287 287 286 286 285 285 285 285 285 284 284 283 283 283 283 281 281 280 280 278 276 276 277 277 277 278 279 279 280 281 283 284 285 284 284 285 285 286 285 284 284 284 283 284 284 284 284
296 296 295 296 296 296 296 296 296 297 298 296 296 294 293 293 293 293 294 292 295 295 293 293 293 294 294 294 293 294 293 294 293 292 291 291 289 288 287 287 286 286 285 285 285 285 284 283 284 283 283 282 282 281 281 279 278 276 276 276 276 276 276 277 278 278 278 279 282 284 285 285 284 285 284 284 284 285 285 284 284 283 283 284 285
Wind_Speed
6 4 5 6 7 6 3 2 3 2 4 5 5 7 7 6 6 5 6 5 4 4 6 6 5 5 5 5 3 3 3 2 2 3 3 3 3 4 2 1 3 3 3 2 5 4 3 3 2 3 3 3 3 3 3 3 3 5 3 4 6 5 6 4 6 5 3 4 7 7 8 8 8 10 9 6 6 6 9 8 9 6 6 6 5
4 6 8 11 7 5 5 7 6 6 4 5 5 6 7 6 5 5 5 6 4 4 7 4 5 4 5 5 4 3 3 2 2 2 3 0 4 2 0 1 3 5 2 1 4 3 3 7 3 2 3 4 3 3 2 2 3 2 4 4 5 4 4 4 5 4 6 4 4 6 7 7 7 9 9 8 6 8 9 8 7 6 7 6 6
4 6 6 11 9 6 3 2 2 7 4 4 5 6 6 6 5 4 5 6 4 3 5 4 4 4 4 5 5 4 3 3 2 1 3 4 2 1 1 2 5 1 2 4 3 4 3 3 5 2 3 3 3 1 1 3 2 2 2 3 3 2 5 6 7 5 6 3 4 6 5 5 6 9 10 8 8 10 10 9 9 7 7 7 7
8 7 6 9 10 8 5 6 6 6 4 4 5 5 5 6 5 5 5 4 4 4 4 3 3 3 4 4 4 4 3 3 3 2 4 3 1 1 1 5 1 3 3 4 6 4 6 3 3 3 3 3 2 2 2 1 4 3 3 4 4 4 4 2 6 6 4 5 4 6 6 5 3 9 9 8 8 9 9 9 9 8 8 9 9
8 11 10 10 8 10 7 6 3 3 3 4 6 6 5 5 5 6 6 5 5 5 4 3 3 3 4 4 4 3 4 3 3 3 3 3 2 2 3 2 2 2 5 5 6 5 5 4 4 4 3 3 1 1 1 2 1 4 2 4 1 3 1 2 1 5 7 6 5 3 7 5 3 6 10 8 7 7 10 10 10 9 8 10 9
4 7 10 10 9 9 8 7 4 1 3 5 7 6 5 4 3 4 5 6 6 4 4 3 3 4 3 3 4 3 4 3 3 4 4 3 3 3 3 2 2 4 2 4 4 3 4 4 4 3 2 2 1 1 1 1 2 1 2 1 3 3 0 1 1 2 4 6 7 2 6 6 5 3 10 8 8 7 8 10 9 9 9 7 7
3 6 7 7 6 7 8 7 4 2 5 5 5 5 5 4 4 4 3 4 5 4 5 4 2 3 2 3 4 3 4 3 3 4 3 3 3 3 4 2 4 2 1 4 3 3 4 4 4 3 2 2 0 1 1 1 3 3 3 2 1 5 1 1 1 0 1 3 5 5 5 5 6 4 7 10 9 8 6 8 8 9 6 8 5
5 6 7 6 5 8 6 5 4 4 5 4 4 4 4 4 3 4 3 4 3 3 4 5 2 2 2 3 4 3 4 3 4 3 3 3 3 3 2 3 3 2 3 3 3 3 4 3 3 7 7 7 6 6 6 5 4 5 4 5 5 2 2 3 2 0 2 2 2 5 3 4 4 3 2 7 8 7 7 6 8 8 6 6 8
2 5 7 7 7 6 6 5 5 5 5 5 5 4 4 3 4 4 3 4 3 3 4 5 2 2 2 3 4 4 7 8 6 5 1 4 3 2 3 2 3 1 2 3 2 2 3 4 6 5 7 9 10 9 6 5 4 4 5 4 5 6 6 6 4 2 3 5 4 2 0 3 6 5 5 4 7 8 7 6 6 8 7 8 6
2 5 7 8 7 7 6 5 5 6 6 6 4 4 4 3 5 4 5 4 2 4 4 4 2 2 3 3 6 9 7 5 8 12 11 5 1 2 2 1 2 2 0 2 2 1 1 5 5 9 10 9 8 8 9 9 8 5 2 3 4 4 4 4 4 4 2 1 0 1 3 4 2 2 6 5 3 5 6 7 7 5 6 7 8
6 7 7 6 6 7 7 7 7 7 6 7 7 9 9 8 4 4 6 4 3 4 4 4 3 3 6 5 9 9 6 6 11 13 13 14 9 6 1 0 1 1 2 0 2 0 0 5 2 4 6 6 6 8 8 8 9 8 7 6 4 2 2 3 2 3 3 1 0 0 1 4 5 3 4 5 3 3 6 5 7 5 6 6 6
8 6 6 6 6 6 6 6 6 5 5 6 7 7 7 7 8 8 9 9 8 7 5 4 5 4 5 6 9 7 6 9 11 13 12 13 10 6 5 4 0 1 1 2 2 8 10 8 6 3 1 2 3 4 3 4 6 7 6 5 4 1 2 1 0 2 1 2 1 1 2 4 1 5 3 2 7 7 4 3 4 7 5 6 5
11 10 6 6 6 5 7 7 8 7 5 5 6 8 9 9 8 8 8 6 6 7 7 8 8 9 9 11 9 7 5 10 10 13 13 12 12 8 5 5 7 5 5 8 10 5 1 4 5 10 10 3 3 4 4 3 1 3 2 2 3 6 6 5 4 3 1 1 2 4 4 2 3 4 3 2 2 8 5 7 6 4 4 4 5
12 11 11 9 5 6 7 8 8 7 6 5 6 8 10 9 8 7 6 7 7 6 7 8 7 8 8 9 8 6 7 10 11 12 12 13 13 9 3 5 5 4 3 4 2 2 4 2 2 0 5 11 11 4 1 4 3 2 1 2 3 5 7 9 9 8 5 3 2 3 3 3 4 3 4 4 4 4 6 8 7 5 6 3 1
11 11 9 10 10 6 5 7 7 7 5 5 6 6 8 9 8 5 6 6 5 5 6 7 6 6 7 7 7 7 5 11 12 13 14 13 13 8 4 3 4 3 3 6 3 2 4 3 2 7 6 4 6 12 11 9 2 2 2 1 1 2 1 0 1 2 4 5 5 2 2 3 2 2 2 3 4 3 3 2 2 2 2 3 4
10 10 11 11 10 9 7 5 6 6 6 6 6 5 6 6 5 2 3 4 4 3 4 5 6 6 7 7 7 7 7 14 14 14 13 12 10 3 3 2 2 2 2 3 3 5 5 2 4 6 2 2 4 10 8 4 7 4 1 1 2 2 0 2 1 2 2 2 2 1 1 1 2 0 0 0 0 1 1 4 7 5 3 4 2
11 11 10 10 9 9 7 8 8 7 6 6 6 6 5 4 3 0 3 2 3 3 3 5 5 7 7 7 7 5 5 10 12 11 12 14 10 6 5 4 3 2 3 5 5 6 6 5 5 4 3 1 4 7 8 3 3 5 3 3 2 2 2 2 4 5 4 4 5 5 5 5 3 3 4 4 3 3 5 2 1 2 3 1 2
10 10 10 10 10 9 9 9 9 7 7 8 7 6 5 4 3 3 1 2 3 4 6 7 7 7 8 7 6 8 7 10 13 13 13 13 7 4 4 3 4 3 3 4 4 5 8 13 7 2 1 2 8 7 9 6 3 3 3 2 3 3 3 2 2 2 1 2 4 5 4 4 4 4 5 8 9 6 2 3 2 5 5 3 3
10 10 10 9 9 9 9 10 9 10 9 8 7 6 5 5 4 5 6 7 7 6 7 8 7 8 8 9 11 10 7 8 13 13 14 13 9 4 3 3 4 4 2 3 5 5 6 9 13 8 4 4 7 8 11 8 4 4 3 3 4 6 3 3 2 2 2 2 1 1 0 1 0 1 1 4 8 7 5 4 1 0 2 4 5
10 9 9 9 9 9 8 9 9 9 9 9 8 7 5 4 6 7 6 6 7 7 8 7 8 7 7 8 8 8 8 7 10 14 14 15 14 6 6 7 6 7 5 3 3 4 6 7 7 8 6 6 7 8 9 9 5 5 5 2 3 2 1 3 1 2 3 4 3 3 3 3 1 1 0 1 2 4 5 3 3 0 4 7 7
10 9 8 9 10 10 9 9 7 7 8 7 6 6 6 7 7 7 7 7 7 7 7 7 7 7 8 8 7 7 7 7 10 14 15 16 17 12 7 7 6 5 5 6 4 2 6 6 5 7 9 8 7 7 5 5 3 2 3 2 3 3 6 3 2 2 2 3 2 3 3 4 3 3 2 2 4 3 7 7 6 6 5 3 2
8 8 9 9 9 9 10 9 8 7 6 5 5 5 4 5 7 7 6 6 7 7 6 6 7 6 6 7 8 8 8 10 7 11 14 15 14 14 8 6 5 5 6 6 7 9 7 5 5 7 7 6 6 5 4 4 3 1 2 4 5 5 5 6 5 4 4 5 4 3 5 5 6 4 5 5 6 7 7 7 7 7 7 6 5
7 8 8 9 8 9 8 9 8 7 8 8 7 6 5 5 5 5 8 7 6 7 6 6 6 6 6 6 6 6 6 8 11 9 12 14 14 13 12 8 10 8 5 5 6 5 4 4 3 6 9 9 7 6 5 5 4 3 8 8 7 7 5 4 5 3 3 2 2 1 1 2 4 5 5 7 5 6 8 7 7 8 8 8 8
6 6 6 7 7 8 8 8 8 7 8 7 8 9 8 7 7 5 3 2 3 5 4 4 6 7 6 5 4 4 5 6 10 13 11 13 14 14 14 12 10 5 4 5 5 4 4 3 5 8 8 7 8 9 9 6 3 6 7 7 8 7 4 5 5 4 3 3 3 3 2 1 2 3 6 6 5 5 7 7 8 8 8 8 7
6 6 5 5 5 6 6 7 7 7 8 8 8 7 8 8 7 8 8 8 8 7 4 1 2 4 4 6 6 5 5 6 6 10 13 12 12 13 13 13 12 9 6 4 3 2 1 5 6 7 8 9 11 10 4 4 3 3 5 6 6 3 4 5 5 4 5 6 6 2 2 1 3 6 6 6 5 5 6 6 7 8 8 7 7
7 6 7 6 5 7 7 6 6 6 7 7 8 8 9 8 7 8 8 7 6 6 6 6 7 6 6 5 5 4 7 6 8 8 8 9 8 11 11 10 10 11 8 2 5 7 7 7 7 7 7 6 5 4 4 4 5 6 6 4 3 4 4 5 5 5 4 3 1 3 2 2 3 5 7 8 7 7 6 6 7 6 6 6 6
5 4 4 5 7 8 8 6 7 9 9 9 8 8 8 8 8 9 8 7 7 6 7 8 7 6 4 3 2 5 9 7 7 7 7 7 7 7 6 6 9 8 6 6 8 7 8 8 6 6 5 8 7 6 6 6 4 3 2 2 3 3 4 3 3 4 3 3 3 4 3 3 4 5 3 3 5 4 4 6 6 5 6 4 5
5 5 5 4 4 6 7 9 9 7 8 8 7 7 7 8 9 8 7 7 6 7 8 8 8 7 7 8 8 8 7 7 6 6 6 6 5 6 6 6 6 6 6 6 7 8 8 8 7 5 4 4 4 3 4 3 3 2 3 2 2 2 1 1 3 3 2 4 3 4 3 2 3 4 5 6 5 5 5 5 4 5 5 5 4
4 4 4 4 4 5 5 6 7 7 8 8 8 7 5 6 7 7 6 4 5 6 7 6 6 6 7 8 7 6 6 6 5 3 3 2 3 4 5 5 5 6 5 8 7 6 6 5 5 3 5 5 4 4 3 4 3 3 3 4 3 3 3 1 1 2 1 4 2 2 3 2 5 4 6 6 5 5 5 6 5 6 4 5 5
5 6 5 5 4 3 3 5 7 7 7 6 7 7 11 12 7 6 4 6 12 12 10 6 4 5 6 6 6 5 4 3 5 7 6 5 4 5 7 8 8 7 8 11 4 3 4 4 5 5 5 4 5 5 4 2 1 2 4 1 2 0 3 2 3 4 5 3 3 1 1 3 4 3 4 5 5 4 4 5 5 5 5 3 3
4 4 5 5 4 4 4 4 3 6 8 7 6 6 5 7 11 11 10 8 8 8 9 9 12 11 7 4 4 8 6 4 7 8 9 9 9 9 10 9 9 6 5 6 1 2 5 5 6 3 2 5 6 7 7 5 5 5 5 2 1 3 1 0 1 4 4 4 3 3 3 3 3 4 6 5 6 5 6 6 7 6 6 5 5
4 4 4 5 4 4 4 5 4 5 4 6 7 5 5 6 3 4 6 6 7 7 8 8 7 7 9 8 5 4 5 7 9 9 10 11 10 11 11 12 11 8 3 3 3 5 5 5 5 6 6 7 6 8 7 6 6 6 6 5 6 5 2 1 1 4 4 4 5 4 4 4 4 4 5 5 5 6 6 5 5 5 5 5 5
8 8 7 2 3 5 6 5 5 5 4 5 3 4 5 5 4 2 2 4 6 6 6 5 4 4 3 4 2 0 4 7 9 9 9 10 11 11 11 12 12 2 6 1 2 4 4 6 7 8 8 7 7 7 8 7 7 6 5 6 7 7 7 2 3 6 4 4 5 4 4 4 4 4 4 4 5 5 4 4 4 4 4 3 4
7 6 7 5 5 5 5 4 4 3 3 4 3 4 5 4 3 5 4 2 2 2 3 4 5 5 5 3 3 1 4 6 7 8 8 10 11 12 9 8 13 6 4 1 4 4 6 8 8 8 8 7 7 6 6 7 7 7 6 7 6 6 7 5 6 4 5 5 5 4 5 4 4 5 5 5 4 4 4 3 4 4 4 3 2
2 4 11 10 7 6 6 6 4 4 4 4 4 4 3 3 4 5 4 2 3 5 2 2 3 6 4 1 6 7 9 10 10 10 11 12 14 14 9 4 3 5 4 4 7 7 7 7 7 7 7 6 6 5 6 7 7 7 6 5 6 7 7 5 4 4 4 4 5 4 4 4 4 4 4 4 4 4 4 3 2 3 1 1 2
1 3 5 7 5 5 5 5 4 4 4 3 3 3 2 3 4 4 3 4 4 3 4 6 4 7 5 8 8 9 9 10 11 11 12 14 16 15 9 8 7 7 7 7 7 7 6 7 6 5 5 5 6 5 6 5 6 5 7 5 5 4 5 4 3 4 4 5 5 5 5 4 4 4 5 5 5 4 3 2 0 2 2 2 3
8 9 7 5 5 4 4 4 3 3 4 3 3 3 3 3 4 4 3 3 3 3 3 5 4 1 2 3 6 8 10 9 8 9 11 13 15 10 7 7 6 8 8 7 7 6 7 6 6 7 7 7 7 6 4 5 4 4 5 5 3 3 4 4 5 4 4 5 5 5 5 5 5 4 4 3 3 3 2 2 2 3 5 7 5
8 6 6 8 5 5 3 3 1 3 1 3 4 4 4 4 3 3 2 2 3 3 3 6 7 5 4 4 8 6 10 4 8 7 8 8 6 5 5 5 8 6 6 6 6 5 5 5 4 5 6 6 7 7 6 7 4 3 3 3 3 3 6 6 6 6 6 5 5 5 5 5 4 4 3 3 2 1 2 3 3 4 3 3 3
4 7 10 10 7 5 4 3 3 3 3 2 4 3 3 2 4 4 3 4 4 3 4 5 5 5 4 4 4 6 8 4 4 3 3 4 3 4 5 5 5 4 4 5 5 5 5 6 6 6 7 6 6 7 6 6 6 5 4 4 4 5 5 4 5 5 5 4 4 3 4 4 4 4 4 4 4 3 3 4 5 4 2 4 4
3 4 5 3 3 2 2 2 2 2 3 2 3 3 3 4 2 2 3 3 3 4 4 4 5 3 3 3 3 3 3 2 3 2 3 4 3 4 5 4 4 4 3 3 4 5 6 6 7 6 6 6 6 6 7 6 6 6 7 5 5 5 5 4 3 3 3 3 3 3 4 4 4 3 2 2 3 4 4 4 2 3 4 4 4
4 4 1 2 3 1 4 3 2 2 2 5 1 4 3 3 3 3 3 3 3 3 4 4 3 2 1 3 5 0 3 1 3 4 5 4 4 4 4 4 3 3 4 4 4 5 5 5 3 3 3 3 4 4 4 6 5 6 6 6 5 5 4 4 3 3 2 3 3 3 2 1 1 1 1 2 4 4 2 4 5 3 4 5 6
1 1 2 1 2 3 4 3 5 3 3 2 5 3 5 4 3 3 3 3 4 5 2 2 1 1 2 5 6 3 3 4 5 6 4 4 4 4 4 4 5 5 4 4 4 4 4 4 3 3 3 3 3 4 4 5 5 5 6 5 5 5 5 4 4 4 4 3 4 4 4 4 5 4 4 4 3 3 5 6 5 3 4 6 3
4 2 2 1 2 3 3 3 4 6 2 2 1 0 2 1 4 6 3 2 4 4 2 1 1 2 1 3 5 9 5 5 5 5 4 4 4 4 4 4 4 5 5 4 4 4 4 4 3 3 2 2 3 4 4 4 4 5 5 5 5 5 4 5 5 5 3 3 3 3 4 4 3 4 3 3 3 3 5 4 5 3 3 4 7
3 3 3 1 2 3 2 3 4 5 3 2 4 4 2 3 2 2 5 2 2 3 2 1 1 3 3 1 4 6 4 5 4 4 4 4 4 4 4 4 4 4 4 4 4 4 4 4 4 4 4 5 3 4 4 4 3 4 3 4 4 4 4 4 5 5 4 3 4 3 3 3 4 3 3 3 3 4 4 6 4 2 3 3 4
1 3 3 2 2 1 1 0 1 3 2 3 2 5 3 3 4 3 3 2 4 4 3 1 2 3 5 2 2 4 4 4 4 4 4 4 4 4 4 4 4 4 4 4 4 4 4 4 4 4 4 4 6 4 4 4 5 4 5 5 4 4 5 5 5 4 3 3 3 3 3 2 0 0 0 1 3 4 6 2 3 5 4 5 5
2 2 3 2 0 2 1 2 0 1 3 4 3 4 1 1 4 5 4 2 1 1 4 3 1 2 4 4 2 3 4 5 4 4 4 4 4 3 3 3 4 4 3 3 3 4 4 3 3 4 4 4 5 5 5 4 5 5 5 5 5 5 5 5 5 6 3 2 2 1 1 0 2 3 4 4 3 4 1 3 4 1 4 3 4
3 2 2 2 1 1 1 1 1 2 3 4 4 2 2 2 4 4 2 1 0 1 1 4 4 2 1 2 4 2 1 3 4 4 4 5 3 3 3 3 3 4 4 4 4 3 3 3 3 3 4 4 4 5 5 5 4 5 5 5 5 6 5 6 6 5 5 6 6 6 3 3 1 1 4 3 2 5 7 5 4 4 3 1 1
3 3 3 2 3 3 2 1 3 2 3 3 2 3 4 3 3 6 5 2 3 2 2 1 2 4 4 2 1 3 3 1 1 3 4 4 4 3 3 3 2 3 4 3 3 3 3 3 3 3 3 4 4 4 4 4 4 4 4 3 5 5 7 8 4 5 5 6 6 6 4 4 4 2 1 3 4 4 4 5 5 5 4 3 2
3 3 2 3 3 3 1 1 2 3 2 1 2 2 3 4 4 1 5 6 5 3 3 2 0 2 3 3 4 3 1 0 0 1 2 4 4 4 3 2 2 3 3 3 2 2 3 2 3 3 3 3 4 4 3 3 3 3 3 3 5 9 9 9 5 6 8 6 5 6 5 4 4 4 4 2 2 3 3 3 4 5 5 6 6
2 2 2 2 3 3 2 3 3 3 2 2 2 3 5 5 1 2 3 3 4 4 4 4 2 2 1 2 2 2 3 4 3 3 3 5 4 4 4 3 1 2 2 3 2 1 2 3 3 3 3 3 3 4 3 3 3 3 3 3 7 8 8 9 7 9 7 5 5 5 5 4 4 5 5 7 6 3 1 4 4 4 4 4 5
2 2 3 3 4 4 4 3 2 2 1 1 2 4 5 4 3 4 2 1 2 2 4 5 4 2 1 2 1 1 2 1 1 2 6 5 4 4 3 2 3 3 1 1 2 3 3 3 2 3 4 3 3 3 3 3 3 2 3 5 7 8 9 9 7 9 10 7 4 4 5 6 5 6 5 5 5 6 6 5 4 4 4 4 5
Wind_Direction
139 136 83 37 19 33 46 9 323 122 141 127 127 132 136 132 134 135 137 139 160 167 135 144 147 149 146 151 147 143 130 197 120 125 124 159 181 116 169 199 151 151 140 180 107 124 135 90 330 132 119 119 139 168 189 205 195 203 128 105 136 170 166 141 129 119 73 114 131 142 157 154 144 142 150 150 156 146 128 135 150 157 150 153 158
69 99 95 120 101 47 2 2 357 288 144 153 153 148 134 137 142 146 147 140 180 165 135 146 149 155 149 150 144 145 158 146 118 160 133 120 74 91 212 263 99 92 195 135 97 94 118 132 174 84 142 137 180 180 208 218 154 138 116 132 139 178 191 125 114 125 128 141 123 132 145 171 138 154 149 152 160 135 135 150 170 171 159 163 163
94 39 71 104 111 112 127 150 208 268 165 183 160 134 126 125 132 137 131 143 177 158 128 150 155 144 140 137 141 149 157 136 146 155 91 85 104 50 321 64 80 117 95 119 132 109 110 106 134 180 144 152 222 146 167 253 194 138 119 81 134 91 17 122 138 129 136 161 155 145 157 190 155 151 149 160 161 143 149 163 174 183 173 173 174
110 110 133 133 141 149 161 153 183 236 185 178 134 118 126 137 145 151 142 153 160 122 126 150 146 132 135 132 132 155 144 126 175 136 113 123 130 170 69 87 120 227 190 135 108 105 86 91 122 133 116 128 231 111 240 315 326 90 77 70 34 48 74 89 138 131 142 156 197 156 159 195 171 147 149 164 169 151 161 169 180 196 179 183 185
129 157 169 151 149 150 162 143 101 294 186 160 130 139 147 148 161 150 147 155 138 130 150 144 141 143 137 143 141 152 129 157 139 101 110 143 163 127 118 137 229 38 41 84 101 105 131 134 130 127 147 187 175 177 217 341 346 77 62 108 92 66 53 45 82 150 145 161 192 179 156 176 209 149 153 163 180 168 159 172 186 204 197 183 192
118 149 155 154 156 150 145 135 134 213 203 142 145 157 154 154 159 135 155 147 138 146 150 137 158 130 162 142 136 134 139 141 135 135 143 164 139 150 136 151 79 73 28 54 81 118 125 124 114 134 153 101 113 287 61 204 43 70 116 258 125 139 4 214 91 99 157 158 178 168 150 159 211 170 164 162 171 189 167 176 189 200 210 177 181
110 155 135 141 151 137 140 143 154 155 164 145 142 144 137 140 149 140 144 132 144 159 138 132 155 135 182 132 126 135 133 149 135 139 151 136 139 106 94 101 88 106 125 88 74 63 102 109 125 125 117 129 151 46 11 48 40 10 22 20 43 121 144 315 303 170 167 169 168 183 157 180 174 207 176 168 169 189 176 171 192 207 192 150 147
163 145 136 146 141 132 133 133 121 104 128 138 137 132 120 142 149 130 128 116 129 119 135 123 183 133 169 125 129 117 119 136 134 150 136 117 97 98 93 77 83 64 70 98 102 87 76 85 70 71 65 62 63 52 48 23 28 37 23 33 8 61 161 196 228 318 227 230 175 185 161 171 174 184 220 165 169 187 202 175 188 201 187 161 161
168 151 139 131 125 126 115 113 108 99 119 139 137 131 149 164 127 127 107 109 122 111 106 114 159 100 95 103 124 96 61 35 23 359 99 119 107 106 117 93 93 75 46 75 79 80 103 75 74 87 93 93 89 89 68 65 52 42 24 26 26 19 17 15 51 62 32 7 347 8 31 170 181 179 220 214 184 187 197 193 199 196 181 156 180
334 138 122 111 114 108 93 78 72 87 76 63 57 119 125 110 124 128 117 111 110 110 124 115 159 163 142 107 91 73 57 50 9 35 41 28 74 104 92 110 122 99 171 81 84 358 89 94 101 97 92 91 98 95 88 75 72 78 65 46 37 23 19 21 15 7 29 76 138 1 355 324 294 218 206 220 203 186 184 196 215 205 178 168 173
35 45 65 59 89 101 95 77 47 33 60 69 62 58 55 36 45 100 95 93 83 105 128 131 126 83 75 65 72 67 56 21 17 38 34 36 29 15 28 50 72 132 107 9 57 299 40 87 80 124 121 117 99 106 102 102 104 99 83 79 70 57 24 14 8 27 10 23 241 69 292 273 278 339 313 313 299 204 199 193 205 197 186 178 200
26 52 73 61 53 64 87 100 101 82 53 70 69 66 65 61 57 57 62 59 48 41 50 74 75 77 95 83 63 62 63 21 26 35 34 33 34 23 1 352 85 81 61 37 354 23 11 14 354 344 140 139 147 133 148 145 144 139 131 126 121 125 119 137 331 329 1 17 7 188 191 245 270 261 273 257 257 261 252 247 211 202 203 205 193
29 26 34 68 66 66 71 79 80 65 48 60 76 74 70 61 49 48 56 55 54 61 65 63 60 53 57 68 63 50 51 21 31 33 32 27 20 24 15 16 5 8 27 41 28 32 163 80 15 322 325 261 176 157 167 169 115 29 69 136 207 199 220 221 219 215 284 284 257 270 247 198 188 234 233 241 300 272 248 241 242 225 226 228 214
34 28 33 28 50 72 77 80 79 78 78 55 52 70 71 69 53 42 46 59 63 59 62 66 60 57 69 79 73 47 37 7 26 34 33 22 13 3 28 14 4 1 78 103 118 259 53 47 149 202 333 327 316 319 149 143 140 159 201 225 230 233 230 230 225 223 222 222 242 262 274 282 244 236 233 229 228 250 235 228 225 226 221 212 311
39 33 28 43 29 24 73 89 93 99 89 79 66 56 67 68 55 37 44 36 54 73 80 76 68 68 72 79 79 63 25 12 28 27 26 18 7 344 9 9 7 1 38 97 126 203 131 101 352 52 25 323 283 314 341 358 332 180 196 216 281 323 278 184 185 198 200 212 223 245 354 10 328 289 221 244 226 233 221 234 259 235 118 80 35
41 35 32 30 32 30 41 80 113 122 121 114 101 88 81 74 74 34 68 65 53 50 73 85 92 87 84 83 82 65 33 19 27 27 22 11 358 1 344 15 7 360 357 92 74 56 33 51 95 89 115 268 331 2 349 321 293 290 237 235 254 253 211 118 182 68 54 51 74 115 149 196 232 253 240 226 238 143 55 46 48 42 71 60 99
45 43 39 32 32 28 29 57 62 66 75 85 103 114 114 109 100 74 88 121 112 97 97 73 70 89 85 82 88 84 53 25 30 31 27 18 18 3 350 343 345 354 42 45 47 48 54 51 81 85 84 274 355 333 329 13 306 286 301 316 314 312 272 97 51 60 97 126 147 154 165 158 121 68 39 57 91 122 102 69 97 103 78 65 352
48 45 42 36 34 37 44 47 49 55 64 70 69 71 79 74 54 19 9 129 136 103 80 79 70 67 71 73 81 74 56 32 34 32 31 23 17 5 341 349 343 15 40 51 63 66 56 57 54 63 79 5 347 347 350 348 323 321 321 340 334 314 341 103 138 68 42 133 137 143 131 126 100 45 25 21 27 26 73 138 138 110 135 157 195
41 42 38 35 35 37 42 49 51 46 42 50 57 60 63 67 55 52 59 52 46 60 74 81 82 77 79 79 68 69 62 42 37 38 34 26 16 0 337 340 6 33 45 72 103 93 84 58 59 53 50 343 343 15 21 14 333 332 337 30 325 307 319 297 160 151 169 184 183 194 171 156 178 86 29 24 34 41 61 83 41 338 212 178 167
32 39 42 35 34 34 35 56 60 52 52 48 44 43 35 66 81 72 61 59 61 47 52 56 72 68 64 65 68 70 69 54 40 42 39 30 20 15 28 31 17 354 7 16 89 128 116 111 64 53 54 26 20 15 20 34 14 337 333 306 234 263 2 310 298 204 185 201 186 185 196 173 154 136 163 65 63 42 38 20 26 201 219 205 193
29 30 35 38 38 35 28 23 43 75 69 50 39 39 51 55 66 75 77 70 73 59 59 67 71 72 72 70 66 57 62 71 49 48 45 40 33 29 46 32 8 348 345 350 342 75 103 83 67 31 20 20 14 13 20 36 55 345 308 1 32 300 306 294 282 228 277 254 201 177 182 169 164 173 189 178 119 102 75 69 68 53 45 31 133
36 36 37 37 38 38 33 26 23 32 49 66 60 54 47 71 84 86 75 83 86 83 91 97 91 82 79 78 73 68 53 56 68 49 48 45 42 38 39 34 359 343 7 10 22 39 38 53 30 360 1 13 359 353 359 14 348 271 305 335 307 355 341 306 285 233 221 248 241 213 184 190 191 182 182 153 100 89 89 88 81 64 40 35 53
48 42 40 43 38 42 38 33 32 32 33 31 37 40 33 47 63 87 107 108 109 120 118 113 109 99 89 81 78 78 70 58 54 52 43 41 33 29 27 22 11 24 18 8 34 35 23 23 24 356 347 345 342 341 346 353 318 35 7 347 333 319 292 263 268 274 246 247 283 300 268 201 197 186 172 107 115 113 102 99 93 86 73 57 46
61 70 61 50 46 43 45 44 38 35 33 34 36 34 29 33 36 34 47 86 124 135 126 127 127 126 120 109 105 97 90 78 56 52 44 35 27 18 11 7 16 16 8 20 20 34 7 355 338 326 336 339 335 334 334 354 335 329 337 338 328 311 277 277 255 234 251 229 226 239 251 1 55 50 83 109 108 106 101 100 96 93 96 92 84
31 47 67 82 70 61 57 55 50 42 43 41 41 35 29 22 29 24 33 39 36 35 49 88 100 96 106 121 135 126 92 83 69 50 41 27 24 11 0 0 352 1 8 348 1 29 242 259 289 316 329 337 343 338 1 56 16 314 310 317 313 296 285 268 264 240 236 229 224 171 117 145 129 124 119 110 114 104 102 95 102 104 110 114 102
29 45 42 31 53 80 71 62 59 61 59 53 48 42 37 30 30 24 23 27 40 43 30 35 40 40 49 46 54 98 108 70 52 37 25 16 11 356 352 352 358 349 334 309 338 339 334 316 315 324 340 346 339 342 340 335 316 286 282 288 296 303 317 326 324 322 319 328 125 145 139 112 112 133 136 135 130 136 126 119 112 109 111 113 109
44 36 52 69 59 51 47 45 47 41 37 38 43 51 45 36 32 26 25 15 16 30 38 27 28 26 54 52 109 98 64 57 39 28 19 8 0 349 348 356 2 359 348 19 2 347 326 319 299 297 287 297 294 287 286 287 286 263 250 238 255 295 322 354 348 348 350 14 40 55 54 41 25 30 27 53 90 93 110 124 110 96 89 82 95
66 65 60 55 70 81 72 60 64 64 52 44 34 32 56 58 46 40 25 15 13 27 38 33 25 12 14 19 12 50 57 47 31 14 6 360 350 346 349 352 357 350 350 360 344 324 310 296 281 252 252 253 250 229 227 232 250 282 279 265 251 257 222 44 323 328 34 74 71 68 79 74 56 54 56 56 40 22 27 66 90 91 96 103 73
64 79 89 94 91 92 92 93 88 82 75 63 50 34 21 56 73 65 42 24 35 37 51 45 23 2 37 30 19 24 29 23 17 342 317 314 303 335 344 341 331 324 350 359 329 309 301 296 301 282 218 223 244 253 242 229 229 235 234 241 232 228 213 219 16 325 104 101 109 117 134 105 86 81 83 75 60 63 61 78 62 79 57 63 83
68 51 44 49 59 67 100 122 118 107 101 97 84 63 39 41 54 91 86 66 69 70 76 72 39 13 44 55 44 41 26 357 320 331 336 331 309 276 272 282 284 286 304 314 287 301 302 296 285 274 268 248 234 232 237 199 204 253 255 209 271 350 69 62 42 57 57 49 70 79 86 84 103 104 95 93 81 62 48 62 52 46 70 67 78
78 83 65 48 26 62 52 43 55 118 125 111 104 102 92 44 35 46 63 70 70 74 82 86 71 65 56 53 92 91 66 7 353 345 337 335 329 324 320 315 316 316 335 349 329 269 297 295 275 282 307 349 358 17 24 32 5 23 10 3 4 73 39 53 115 108 117 104 74 62 63 76 83 76 86 76 69 55 46 44 53 50 51 45 47
66 67 62 43 34 57 70 58 57 52 75 128 132 125 112 113 87 33 27 33 37 47 50 46 58 73 73 64 40 14 8 1 345 338 332 327 325 323 318 317 312 321 358 110 324 309 295 299 1 15 27 26 14 13 6 8 11 13 8 11 350 348 357 345 84 113 102 92 92 94 84 65 65 66 78 83 83 71 65 60 55 49 35 30 26
39 30 10 10 92 46 55 52 48 42 40 43 68 117 137 142 132 127 75 49 25 14 360 358 20 34 61 81 73 44 284 301 315 317 317 311 311 309 306 298 293 281 120 185 261 303 355 17 21 17 26 21 14 9 355 6 12 11 5 9 13 5 1 22 59 59 70 96 95 85 93 97 101 98 88 83 87 88 73 68 54 56 45 40 22
53 22 14 342 54 42 57 58 49 56 60 61 58 53 36 35 91 139 149 128 5 339 261 256 279 288 260 208 108 329 322 317 318 316 316 313 310 308 304 285 280 286 151 339 333 11 32 26 22 17 12 13 9 8 6 4 6 358 5 23 9 6 350 6 61 64 71 73 88 93 96 102 102 102 96 88 86 87 86 78 69 60 47 40 22
86 70 51 30 37 39 38 30 40 46 41 42 47 45 46 71 65 42 35 57 155 168 156 154 196 243 257 303 14 3 346 339 333 331 333 337 335 330 319 345 32 66 82 53 39 30 32 29 21 10 10 4 5 1 9 3 358 7 13 356 5 9 355 3 55 73 74 76 83 82 86 91 87 90 104 102 89 80 85 87 83 92 100 291 253
129 134 107 70 56 55 38 39 33 21 23 54 50 44 45 39 58 61 47 32 355 26 118 129 143 184 115 55 14 355 339 332 329 333 343 352 1 12 23 5 14 33 45 37 35 35 35 31 20 5 8 5 7 4 18 4 354 3 359 352 7 8 355 349 44 80 74 77 85 91 86 78 82 86 79 75 82 91 90 84 37 298 264 269 259
37 23 29 49 84 71 75 58 44 7 329 357 28 57 51 57 61 64 64 31 13 360 59 114 147 206 39 41 13 331 338 314 315 340 2 16 22 26 29 17 19 28 31 37 24 30 32 27 20 11 7 8 0 4 17 4 355 351 344 342 10 20 15 15 27 56 68 70 66 72 79 78 72 73 95 109 111 117 153 188 208 239 236 225 228
42 31 43 21 28 76 80 78 65 259 298 52 46 34 35 30 36 98 91 57 37 20 29 64 49 23 14 10 350 6 328 9 63 43 34 31 25 33 29 32 28 22 22 34 32 24 29 25 33 27 18 10 3 358 7 355 348 347 338 335 42 47 44 42 41 53 62 70 67 67 74 74 74 78 71 68 65 359 320 295 293 297 278 306 317
80 58 36 31 36 28 49 38 27 14 16 68 87 62 10 26 35 18 32 46 30 30 50 52 45 36 11 3 351 339 341 46 44 57 42 47 29 57 62 52 52 36 23 29 33 28 25 30 25 25 18 8 0 1 4 360 339 349 339 339 44 54 48 49 47 52 61 67 72 71 74 76 62 45 32 23 360 343 308 278 265 258 253 242 252
88 98 73 9 296 84 14 51 29 35 17 35 70 45 39 14 27 67 49 50 46 28 40 51 45 30 1 354 344 345 325 42 87 67 66 55 41 61 74 68 64 55 38 31 37 40 40 42 36 29 22 11 5 9 5 359 2 12 7 18 45 48 50 53 57 59 72 73 77 71 64 54 54 38 5 314 290 261 245 270 265 270 274 276 266
75 57 84 166 328 274 165 148 84 75 48 351 3 109 66 57 27 9 44 58 61 55 31 47 70 30 344 341 321 251 283 53 74 68 59 55 38 40 58 75 74 62 53 44 45 47 55 57 52 44 30 16 8 11 15 6 12 23 18 21 30 42 42 38 40 51 66 83 98 101 112 136 249 230 282 337 329 317 244 239 257 263 266 259 261
69 147 210 90 323 355 356 70 121 87 74 47 6 10 124 113 57 37 33 52 61 40 45 41 41 49 353 322 316 292 256 56 55 60 64 76 67 49 40 51 53 44 35 32 28 44 56 64 61 55 54 36 25 21 22 26 22 31 26 27 44 45 36 20 11 11 32 46 49 54 58 68 76 68 46 21 343 336 347 340 317 301 326 323 315
338 321 332 342 39 26 5 352 45 55 36 19 3 338 317 77 145 138 104 57 53 75 86 32 322 303 315 333 357 26 61 68 74 58 49 57 68 63 47 39 51 54 45 34 22 27 45 47 43 32 38 58 62 39 36 37 34 38 39 39 35 43 37 19 11 10 19 38 45 53 52 41 54 68 54 30 352 340 326 311 321 342 354 22 40
318 320 313 334 62 105 335 329 64 52 25 332 305 298 302 106 5 68 99 73 75 92 86 62 323 327 334 1 101 78 59 56 58 69 64 53 54 59 60 51 42 56 52 39 20 17 38 42 36 18 13 11 23 78 60 46 45 51 50 51 46 38 33 19 18 13 3 6 13 26 38 34 39 47 44 356 335 326 306 306 304 22 346 342 56
260 284 295 280 122 93 128 284 84 128 220 219 273 264 213 119 98 41 44 111 142 128 96 75 337 332 337 358 62 94 91 76 60 53 58 62 57 60 61 58 49 46 65 61 32 20 33 38 31 25 22 17 360 30 60 51 41 35 33 25 29 26 11 355 341 340 359 15 13 27 20 26 2 261 269 276 280 278 272 301 9 351 355 9 23
293 288 280 287 313 144 184 150 103 314 285 281 225 227 31 43 107 115 121 132 219 165 133 119 97 344 342 345 354 96 103 97 87 78 66 60 59 54 64 71 72 57 48 64 72 51 32 41 45 33 23 29 15 16 35 48 53 45 33 31 21 15 359 344 326 312 295 320 292 210 209 293 304 301 276 275 279 286 313 27 336 44 47 21 17
299 274 273 280 274 229 225 224 202 180 244 280 318 42 227 161 84 115 105 150 304 327 127 132 126 113 352 339 334 356 100 130 124 118 113 106 87 60 30 42 84 78 62 41 34 53 50 32 36 54 45 35 39 28 34 39 37 43 48 36 23 5 357 340 321 342 351 344 339 332 335 307 291 312 294 283 334 9 349 352 8 27 53 42 306
246 243 237 242 245 236 225 235 130 186 260 258 315 333 354 357 214 158 156 148 180 196 88 232 140 132 154 198 306 328 352 9 111 134 123 113 107 91 63 27 47 89 91 74 64 54 44 34 32 38 57 53 55 52 42 38 43 35 40 40 25 4 342 333 336 348 348 329 327 316 331 351 352 344 13 18 14 21 23 350 347 2 347 336 351
247 246 241 242 250 254 188 164 215 222 224 196 136 263 247 232 265 337 154 171 179 159 167 128 93 209 167 169 191 185 123 27 22 345 103 114 108 110 103 84 65 72 86 101 106 108 94 61 58 48 48 62 58 63 63 50 44 44 34 33 358 351 350 351 351 359 336 335 337 339 352 9 359 347 338 31 25 38 3 354 28 5 357 359 360
250 242 272 251 261 266 228 206 213 234 197 202 212 241 226 239 157 265 269 153 153 160 163 127 157 244 224 134 229 210 186 176 168 179 154 119 115 116 112 109 75 66 97 108 98 72 100 122 105 88 61 65 79 70 66 60 54 41 30 7 355 352 355 352 351 355 355 341 330 316 333 6 355 351 13 16 355 332 359 40 14 355 5 351 340
234 246 252 270 279 270 265 258 243 243 196 173 257 268 276 255 169 197 182 302 288 152 138 156 167 204 229 189 151 257 268 9 359 77 86 94 107 105 110 118 135 129 102 77 111 113 81 48 58 90 89 60 62 82 77 76 72 63 38 10 7 1 359 360 354 342 344 346 321 339 14 351 13 14 23 15 5 5 16 12 9 16 349 330 312